When you browse on this site, cookies collect data to enhance your experience and personalize the content and advertising you see.
Visit our Privacy Policy to learn more. By continuing to use the site, you agree to this use of cookies and data.
  • En España
  • Lista de países
  • Para 7 días
  • Temperatura del agua
  • El tiempo en el mapa
  • Informadores
  • user-avatar
    Iniciar sesión

    Tiempo cada hora Kalgoorlie

    Hoy, 29 Mayo, Viernes

    Tiempo Temperatura Precipitaciones Viento Presión Humedad
    00:00 +12°C° 0 mm 4 mps 730 mmHg 47%
    01:00 +11°C° 0 mm 4 mps 730 mmHg 49%
    02:00 +11°C° 0 mm 4 mps 730 mmHg 50%
    03:00 +11°C° 0 mm 4 mps 730 mmHg 51%
    04:00 +10°C° 0 mm 4 mps 730 mmHg 51%
    05:00 +10°C° 0 mm 4 mps 730 mmHg 52%
    06:00 +10°C° 0 mm 4 mps 730 mmHg 50%
    07:00 +11°C° 0 mm 4 mps 730 mmHg 48%
    08:00 +10°C° 0 mm 5 mps 730 mmHg 46%
    09:00 +14°C° 0 mm 6 mps 730 mmHg 38%
    10:00 +16°C° 0 mm 8 mps 729 mmHg 31%
    11:00 +19°C° 0 mm 9 mps 729 mmHg 24%
    12:00 +19°C° 0 mm 9 mps 728 mmHg 22%
    13:00 +21°C° 0 mm 10 mps 727 mmHg 21%
    14:00 +22°C° 0 mm 10 mps 727 mmHg 20%
    15:00 +19°C° 0 mm 9 mps 726 mmHg 22%
    16:00 +18°C° 0 mm 8 mps 726 mmHg 23%
    17:00 +17°C° 0 mm 7 mps 726 mmHg 25%
    18:00 +17°C° 0 mm 7 mps 726 mmHg 28%
    19:00 +16°C° 0 mm 7 mps 726 mmHg 31%
    20:00 +15°C° 0 mm 7 mps 726 mmHg 35%
    21:00 +15°C° 0 mm 8 mps 726 mmHg 44%
    22:00 +15°C° 0 mm 9 mps 727 mmHg 54%
    23:00 +14°C° 0 mm 10 mps 727 mmHg 64%

    Mañana, 30 Mayo, Sábado

    Tiempo Temperatura Precipitaciones Viento Presión Humedad
    00:00 +13°C° 0 mm 10 mps 727 mmHg 65%
    01:00 +12°C° 0 mm 10 mps 727 mmHg 67%
    02:00 +12°C° 0 mm 9 mps 728 mmHg 68%
    03:00 +11°C° 0 mm 8 mps 728 mmHg 69%
    04:00 +9°C° 0 mm 7 mps 729 mmHg 70%
    05:00 +8°C° 0 mm 5 mps 730 mmHg 70%
    06:00 +8°C° 0 mm 6 mps 731 mmHg 68%
    07:00 +8°C° 0 mm 6 mps 731 mmHg 65%
    08:00 +8°C° 0 mm 7 mps 732 mmHg 63%
    09:00 +10°C° 0 mm 7 mps 732 mmHg 55%
    10:00 +11°C° 0 mm 7 mps 732 mmHg 48%
    11:00 +12°C° 0 mm 7 mps 733 mmHg 40%
    12:00 +14°C° 0 mm 7 mps 732 mmHg 39%
    13:00 +15°C° 0 mm 6 mps 732 mmHg 37%
    14:00 +15°C° 0 mm 6 mps 731 mmHg 36%
    15:00 +14°C° 0 mm 6 mps 732 mmHg 39%
    16:00 +14°C° 0 mm 6 mps 732 mmHg 43%
    17:00 +13°C° 0 mm 5 mps 733 mmHg 46%
    18:00 +12°C° 0 mm 5 mps 733 mmHg 50%
    19:00 +11°C° 0 mm 4 mps 733 mmHg 54%
    20:00 +10°C° 0 mm 3 mps 733 mmHg 58%
    21:00 +10°C° 0 mm 3 mps 734 mmHg 59%
    22:00 +10°C° 0 mm 3 mps 734 mmHg 61%
    23:00 +9°C° 0 mm 3 mps 734 mmHg 62%

    Pasado mañana, 31 Mayo, Domingo

    Tiempo Temperatura Precipitaciones Viento Presión Humedad
    00:00 +8°C° 0 mm 4 mps 734 mmHg 64%
    01:00 +8°C° 0 mm 4 mps 734 mmHg 66%
    02:00 +8°C° 0 mm 5 mps 734 mmHg 68%
    03:00 +7°C° 0 mm 5 mps 734 mmHg 72%
    04:00 +7°C° 0 mm 4 mps 734 mmHg 77%
    05:00 +7°C° 0 mm 4 mps 734 mmHg 82%
    06:00 +8°C° 0 mm 5 mps 734 mmHg 79%
    07:00 +8°C° 0 mm 6 mps 734 mmHg 75%
    08:00 +9°C° 0 mm 7 mps 735 mmHg 72%
    09:00 +11°C° 0 mm 7 mps 735 mmHg 65%
    10:00 +14°C° 0 mm 7 mps 735 mmHg 58%
    11:00 +16°C° 0 mm 7 mps 735 mmHg 50%
    12:00 +17°C° 0 mm 7 mps 735 mmHg 49%
    13:00 +18°C° 0 mm 7 mps 734 mmHg 47%
    14:00 +18°C° 0 mm 7 mps 734 mmHg 46%
    15:00 +18°C° 0 mm 7 mps 734 mmHg 48%
    16:00 +17°C° 0 mm 6 mps 734 mmHg 51%
    17:00 +16°C° 0 mm 5 mps 735 mmHg 54%
    18:00 +15°C° 0 mm 4 mps 735 mmHg 57%
    19:00 +14°C° 0 mm 4 mps 735 mmHg 61%
    20:00 +13°C° 0 mm 3 mps 736 mmHg 65%
    21:00 +13°C° 0 mm 3 mps 736 mmHg 67%
    22:00 +12°C° 0 mm 3 mps 736 mmHg 69%
    23:00 +12°C° 0 mm 3 mps 736 mmHg 70%

    1 Junio, Lunes

    Tiempo Temperatura Precipitaciones Viento Presión Humedad
    00:00 +11°C° 0 mm 3 mps 736 mmHg 77%
    01:00 +10°C° 0 mm 2 mps 736 mmHg 83%
    02:00 +10°C° 0 mm 2 mps 736 mmHg 89%
    03:00 +10°C° 0 mm 2 mps 737 mmHg 90%
    04:00 +9°C° 0 mm 2 mps 737 mmHg 91%
    05:00 +9°C° 0 mm 2 mps 737 mmHg 92%
    06:00 +9°C° 0 mm 2 mps 737 mmHg 89%
    07:00 +10°C° 0 mm 2 mps 738 mmHg 86%
    08:00 +10°C° 0 mm 3 mps 738 mmHg 83%
    09:00 +12°C° 0 mm 3 mps 738 mmHg 75%
    10:00 +13°C° 0 mm 3 mps 738 mmHg 68%
    11:00 +16°C° 0 mm 3 mps 738 mmHg 60%
    12:00 +16°C° 0 mm 3 mps 738 mmHg 59%
    13:00 +16°C° 0 mm 3 mps 737 mmHg 57%
    14:00 +16°C° 0 mm 3 mps 737 mmHg 56%
    15:00 +16°C° 0 mm 3 mps 737 mmHg 56%
    16:00 +14°C° 0 mm 3 mps 737 mmHg 57%
    17:00 +14°C° 0 mm 3 mps 737 mmHg 57%
    18:00 +13°C° 0 mm 3 mps 738 mmHg 60%
    19:00 +12°C° 0 mm 3 mps 738 mmHg 63%
    20:00 +12°C° 0 mm 4 mps 738 mmHg 66%
    21:00 +11°C° 0 mm 4 mps 738 mmHg 67%
    22:00 +11°C° 0 mm 4 mps 738 mmHg 68%
    23:00 +10°C° 0 mm 4 mps 738 mmHg 69%

    2 Junio, Martes

    Tiempo Temperatura Precipitaciones Viento Presión Humedad
    00:00 +10°C° 0 mm 4 mps 738 mmHg 71%
    01:00 +10°C° 0 mm 4 mps 738 mmHg 73%
    02:00 +8°C° 0 mm 4 mps 738 mmHg 75%
    03:00 +8°C° 0 mm 4 mps 738 mmHg 77%
    04:00 +8°C° 0 mm 4 mps 738 mmHg 79%
    05:00 +7°C° 0 mm 4 mps 738 mmHg 80%
    06:00 +8°C° 0 mm 4 mps 738 mmHg 78%
    07:00 +8°C° 0 mm 5 mps 738 mmHg 76%
    08:00 +9°C° 0 mm 5 mps 739 mmHg 74%
    09:00 +10°C° 0 mm 5 mps 738 mmHg 66%
    10:00 +13°C° 0 mm 5 mps 738 mmHg 59%
    11:00 +15°C° 0 mm 6 mps 738 mmHg 51%
    12:00 +16°C° 0 mm 5 mps 738 mmHg 48%
    13:00 +16°C° 0 mm 5 mps 737 mmHg 44%
    14:00 +17°C° 0 mm 5 mps 736 mmHg 41%
    15:00 +17°C° 0 mm 4 mps 736 mmHg 42%
    16:00 +17°C° 0 mm 4 mps 736 mmHg 44%
    17:00 +15°C° 0 mm 4 mps 736 mmHg 45%
    18:00 +14°C° 0 mm 4 mps 737 mmHg 47%
    19:00 +13°C° 0 mm 3 mps 737 mmHg 49%
    20:00 +13°C° 0 mm 3 mps 737 mmHg 51%
    21:00 +12°C° 0 mm 4 mps 737 mmHg 52%
    22:00 +12°C° 0 mm 4 mps 737 mmHg 53%
    23:00 +11°C° 0 mm 4 mps 737 mmHg 54%

    3 Junio, Miércoles

    Tiempo Temperatura Precipitaciones Viento Presión Humedad
    00:00 +11°C° 0 mm 4 mps 737 mmHg 55%
    01:00 +10°C° 0 mm 4 mps 737 mmHg 56%
    02:00 +10°C° 0 mm 4 mps 737 mmHg 58%
    03:00 +10°C° 0 mm 4 mps 737 mmHg 59%
    04:00 +8°C° 0 mm 4 mps 737 mmHg 59%
    05:00 +8°C° 0 mm 4 mps 737 mmHg 60%
    06:00 +10°C° 0 mm 4 mps 737 mmHg 57%
    07:00 +10°C° 0 mm 4 mps 738 mmHg 54%
    08:00 +11°C° 0 mm 4 mps 738 mmHg 51%
    09:00 +13°C° 0 mm 5 mps 738 mmHg 46%
    10:00 +14°C° 0 mm 5 mps 737 mmHg 42%
    11:00 +16°C° 0 mm 5 mps 737 mmHg 37%
    12:00 +17°C° 0 mm 5 mps 737 mmHg 35%
    13:00 +18°C° 0 mm 4 mps 736 mmHg 33%
    14:00 +19°C° 0 mm 3 mps 736 mmHg 31%
    15:00 +18°C° 0 mm 2 mps 736 mmHg 34%
    16:00 +17°C° 0 mm 2 mps 735 mmHg 37%
    17:00 +16°C° 0 mm 2 mps 735 mmHg 39%
    18:00 +16°C° 0 mm 2 mps 736 mmHg 39%
    19:00 +16°C° 0 mm 2 mps 736 mmHg 39%
    20:00 +15°C° 0 mm 2 mps 737 mmHg 39%
    21:00 +15°C° 0 mm 2 mps 737 mmHg 39%
    22:00 +16°C° 0 mm 3 mps 737 mmHg 38%
    23:00 +16°C° 0 mm 3 mps 737 mmHg 37%
    Mostrar más